BAW64L EGLL-LFBO

Flight info

Callsign BAW64L
Flight time N/A
Altitude 33000
Route MODMI M185 MID L151 SITET UN859 SOPIL DCT BALAN DCT EVPOK DCT NARAK
Aircraft A320/M-SDE3FGHIRWY/LB1

Departure

Time 2026-05-04 15:49
Airport London Heathrow Airport (EGLL)

Arrival

Time N/A
Airport Toulouse-Blagnac Airport (LFBO)
Time Latitude Longitude Altitude Speed Heading
2026-05-04 15:19 51.47114 -0.48214 78 ft 0 kts 90°
2026-05-04 15:36 51.47114 -0.48222 78 ft 2 kts 90°
2026-05-04 15:36 51.47114 -0.48246 78 ft 2 kts 90°
2026-05-04 15:36 51.47114 -0.48270 78 ft 2 kts 90°
2026-05-04 15:37 51.47114 -0.48295 78 ft 2 kts 90°
2026-05-04 15:37 51.47114 -0.48319 78 ft 2 kts 90°
2026-05-04 15:37 51.47114 -0.48337 78 ft 0 kts 90°
2026-05-04 15:37 51.47113 -0.48352 78 ft 1 kts 45°
2026-05-04 15:38 51.47105 -0.48359 78 ft 0 kts
2026-05-04 15:38 51.47098 -0.48358 78 ft 1 kts
2026-05-04 15:38 51.47097 -0.48358 78 ft 0 kts
2026-05-04 15:40 51.47098 -0.48358 78 ft 0 kts
2026-05-04 15:40 51.47147 -0.48357 78 ft 15 kts
2026-05-04 15:41 51.47254 -0.48354 78 ft 14 kts 358°
2026-05-04 15:41 51.47359 -0.48360 78 ft 15 kts
2026-05-04 15:41 51.47468 -0.48361 78 ft 15 kts
2026-05-04 15:41 51.47522 -0.48368 78 ft 14 kts
2026-05-04 15:42 51.47580 -0.48266 79 ft 13 kts 81°
2026-05-04 15:42 51.47578 -0.48097 81 ft 16 kts 92°
2026-05-04 15:42 51.47578 -0.47891 81 ft 19 kts 89°
2026-05-04 15:42 51.47581 -0.47685 82 ft 18 kts 90°
2026-05-04 15:43 51.47581 -0.47483 84 ft 19 kts 90°
2026-05-04 15:43 51.47583 -0.47275 84 ft 12 kts 91°
2026-05-04 15:43 51.47581 -0.47153 84 ft 13 kts 90°
2026-05-04 15:43 51.47585 -0.46960 83 ft 19 kts 87°
2026-05-04 15:44 51.47590 -0.46738 83 ft 19 kts 90°
2026-05-04 15:44 51.47592 -0.46520 83 ft 19 kts 91°
2026-05-04 15:44 51.47593 -0.46296 81 ft 20 kts 90°
2026-05-04 15:44 51.47595 -0.46070 82 ft 19 kts 88°
2026-05-04 15:45 51.47594 -0.45821 82 ft 24 kts 91°
2026-05-04 15:45 51.47597 -0.45560 86 ft 25 kts 88°
2026-05-04 15:45 51.47595 -0.45292 89 ft 22 kts 91°
2026-05-04 15:45 51.47597 -0.45050 92 ft 22 kts 90°
2026-05-04 15:46 51.47599 -0.44777 91 ft 24 kts 92°
2026-05-04 15:46 51.47600 -0.44508 91 ft 23 kts 88°
2026-05-04 15:46 51.47591 -0.44251 89 ft 23 kts 91°
2026-05-04 15:46 51.47592 -0.43990 86 ft 23 kts 90°
2026-05-04 15:47 51.47591 -0.43712 80 ft 25 kts 88°
2026-05-04 15:47 51.47616 -0.43540 80 ft 0 kts 43°
2026-05-04 15:47 51.47620 -0.43534 80 ft 7 kts 44°
2026-05-04 15:48 51.47681 -0.43437 80 ft 13 kts 24°
2026-05-04 15:48 51.47754 -0.43480 82 ft 11 kts 299°
2026-05-04 15:48 51.47764 -0.43620 83 ft 35 kts 271°
2026-05-04 15:49 51.47765 -0.44386 91 ft 101 kts 271°
2026-05-04 15:49 51.47760 -0.45836 83 ft 157 kts 268°
2026-05-04 15:49 51.47741 -0.47652 528 ft 164 kts 270°
2026-05-04 15:49 51.47726 -0.49478 1092 ft 167 kts 273°
2026-05-04 15:50 51.47749 -0.51342 1668 ft 170 kts 275°
2026-05-04 15:50 51.47782 -0.53280 2075 ft 184 kts 274°
2026-05-04 15:50 51.47696 -0.55426 2402 ft 206 kts 251°
2026-05-04 15:50 51.46752 -0.57254 2782 ft 226 kts 206°
2026-05-04 15:51 51.45200 -0.57752 3251 ft 240 kts 178°
2026-05-04 15:51 51.43469 -0.57602 3752 ft 258 kts 176°
2026-05-04 15:51 51.41647 -0.57511 4316 ft 272 kts 180°
2026-05-04 15:51 51.39745 -0.57567 5122 ft 276 kts 182°
2026-05-04 15:52 51.37830 -0.57728 5983 ft 277 kts 184°
2026-05-04 15:52 51.35933 -0.57948 6800 ft 279 kts 185°
2026-05-04 15:52 51.33997 -0.58207 7621 ft 281 kts 186°
2026-05-04 15:52 51.32052 -0.58486 8435 ft 282 kts 186°
2026-05-04 15:53 51.30123 -0.58773 9196 ft 284 kts 186°
2026-05-04 15:53 51.28155 -0.59068 9930 ft 286 kts 186°
2026-05-04 15:53 51.26162 -0.59369 10523 ft 293 kts 186°
2026-05-04 15:53 51.24104 -0.59680 10821 ft 309 kts 186°
2026-05-04 15:54 51.21905 -0.60014 11108 ft 325 kts 186°
2026-05-04 15:54 51.19600 -0.60363 11449 ft 338 kts 186°
2026-05-04 15:54 51.17273 -0.60715 12011 ft 342 kts 186°
2026-05-04 15:54 51.14894 -0.61075 12635 ft 345 kts 186°
2026-05-04 15:55 51.12497 -0.61437 13237 ft 347 kts 186°
2026-05-04 15:55 51.10111 -0.61798 13795 ft 351 kts 186°
2026-05-04 15:55 51.07672 -0.62140 14383 ft 353 kts 183°
2026-05-04 15:55 51.05212 -0.61901 14932 ft 356 kts 171°
2026-05-04 15:56 51.02846 -0.60877 15466 ft 359 kts 160°
2026-05-04 15:56 51.00519 -0.59386 16011 ft 362 kts 158°
2026-05-04 15:56 50.98192 -0.57829 16552 ft 364 kts 158°
2026-05-04 15:56 50.95885 -0.56283 17073 ft 366 kts 158°
2026-05-04 15:57 50.93531 -0.54713 17601 ft 368 kts 158°
2026-05-04 15:57 50.91196 -0.53165 18127 ft 370 kts 158°
2026-05-04 15:57 50.88814 -0.51590 18623 ft 372 kts 158°
2026-05-04 15:57 50.86418 -0.50008 19108 ft 374 kts 158°
2026-05-04 15:58 50.84043 -0.48443 19588 ft 376 kts 158°
2026-05-04 15:58 50.81617 -0.46850 20064 ft 378 kts 158°
2026-05-04 15:58 50.79181 -0.45253 20543 ft 380 kts 159°
2026-05-04 15:58 50.76767 -0.43672 20986 ft 381 kts 159°
2026-05-04 15:59 50.74307 -0.42063 21431 ft 383 kts 159°
2026-05-04 15:59 50.71834 -0.40448 21872 ft 385 kts 159°
2026-05-04 15:59 50.69385 -0.38851 22300 ft 387 kts 159°
2026-05-04 15:59 50.66891 -0.37227 22731 ft 388 kts 160°
2026-05-04 16:00 50.64388 -0.35598 23151 ft 390 kts 160°
2026-05-04 16:00 50.61908 -0.33988 23548 ft 391 kts 160°
2026-05-04 16:00 50.59383 -0.32352 23957 ft 392 kts 160°
2026-05-04 16:00 50.56851 -0.30714 24353 ft 394 kts 160°
2026-05-04 16:01 50.54348 -0.29095 24746 ft 395 kts 160°
2026-05-04 16:01 50.51798 -0.27445 25064 ft 398 kts 160°
2026-05-04 16:01 50.49256 -0.25802 25293 ft 402 kts 160°
2026-05-04 16:01 50.46656 -0.24125 25615 ft 404 kts 160°
2026-05-04 16:02 50.44046 -0.22443 25956 ft 406 kts 160°
2026-05-04 16:02 50.41462 -0.20779 26277 ft 408 kts 159°
2026-05-04 16:02 50.36183 -0.17383 26890 ft 411 kts 160°
2026-05-04 16:03 50.33563 -0.15701 27199 ft 413 kts 159°
2026-05-04 16:03 50.30897 -0.13992 27510 ft 414 kts 159°
2026-05-04 16:03 50.28220 -0.12278 27797 ft 416 kts 159°
2026-05-04 16:03 50.25570 -0.10584 28066 ft 418 kts 159°
2026-05-04 16:04 50.22870 -0.08859 28342 ft 420 kts 159°
2026-05-04 16:04 50.17512 -0.05299 28902 ft 422 kts 157°
2026-05-04 16:04 50.14819 -0.03401 29152 ft 424 kts 157°
2026-05-04 16:05 50.12101 -0.01585 29399 ft 425 kts 160°
2026-05-04 16:05 50.09359 -0.00028 29673 ft 425 kts 163°
2026-05-04 16:05 50.03691 0.02437 30356 ft 421 kts 167°
2026-05-04 16:06 50.00891 0.03543 30674 ft 420 kts 167°
2026-05-04 16:06 49.93381 0.06516 31390 ft 419 kts 167°
2026-05-04 16:07 49.89593 0.08007 31617 ft 421 kts 167°
2026-05-04 16:07 49.81079 0.11344 32177 ft 423 kts 167°
2026-05-04 16:08 49.78256 0.12448 32351 ft 424 kts 167°
2026-05-04 16:08 49.69673 0.15792 32845 ft 427 kts 166°
2026-05-04 16:09 49.63904 0.18083 32959 ft 428 kts 166°
2026-05-04 16:10 49.52457 0.22703 32974 ft 427 kts 166°
2026-05-04 16:11 49.40966 0.27308 32965 ft 428 kts 166°
2026-05-04 16:12 49.23787 0.34305 32955 ft 427 kts 165°
2026-05-04 16:13 49.12399 0.39110 32949 ft 427 kts 165°
2026-05-04 16:14 49.00974 0.43896 32927 ft 426 kts 165°
2026-05-04 16:16 48.86710 0.49835 32930 ft 427 kts 165°
2026-05-04 16:17 48.72394 0.55639 32924 ft 426 kts 166°
2026-05-04 16:18 48.60957 0.60103 32931 ft 427 kts 166°
2026-05-04 16:19 48.46636 0.65765 32933 ft 427 kts 166°
2026-05-04 16:20 48.32299 0.71601 32932 ft 427 kts 166°
2026-05-04 16:22 48.17984 0.77315 32933 ft 428 kts 167°
2026-05-04 16:23 48.00785 0.84055 32933 ft 427 kts 167°
2026-05-04 16:25 47.83602 0.90751 32925 ft 426 kts 167°
2026-05-04 16:26 47.63595 0.98483 32924 ft 426 kts 167°
2026-05-04 16:28 47.49254 1.03978 32917 ft 425 kts 168°
2026-05-04 16:29 47.28861 1.06070 32919 ft 422 kts 181°
2026-05-04 16:31 47.14232 1.05750 32920 ft 422 kts 181°
2026-05-04 16:32 46.96675 1.05247 32914 ft 421 kts 182°
2026-05-04 16:33 46.85034 1.04731 32913 ft 419 kts 182°
2026-05-04 16:34 46.76313 1.04360 32910 ft 419 kts 182°
2026-05-04 16:35 46.58884 1.03624 32914 ft 418 kts 182°
2026-05-04 16:36 46.50182 1.04233 32909 ft 419 kts 174°
2026-05-04 16:37 46.41630 1.06679 32906 ft 419 kts 169°
2026-05-04 16:38 46.30273 1.10444 32903 ft 419 kts 169°
2026-05-04 16:39 46.16110 1.15141 32905 ft 419 kts 169°
2026-05-04 16:40 46.04764 1.18888 32906 ft 417 kts 168°
2026-05-04 16:41 45.90714 1.23506 32072 ft 412 kts 168°
2026-05-04 16:42 45.82445 1.26213 30674 ft 407 kts 168°
2026-05-04 16:43 45.76904 1.28024 28807 ft 413 kts 168°
2026-05-04 16:43 45.71347 1.29839 27585 ft 404 kts 168°
2026-05-04 16:43 45.68651 1.30719 26964 ft 401 kts 168°
2026-05-04 16:44 45.57957 1.34192 24450 ft 389 kts 168°
2026-05-04 16:45 45.52750 1.35881 23257 ft 383 kts 168°
2026-05-04 16:46 45.45072 1.38359 21513 ft 374 kts 168°
2026-05-04 16:46 45.40054 1.39971 20406 ft 369 kts 168°
2026-05-04 16:47 45.35066 1.41573 19346 ft 364 kts 168°
2026-05-04 16:47 45.30179 1.43142 18276 ft 360 kts 168°
2026-05-04 16:48 45.22940 1.45464 16722 ft 354 kts 168°
2026-05-04 16:48 45.20539 1.46232 16207 ft 352 kts 168°
2026-05-04 16:49 45.15803 1.47745 15163 ft 349 kts 169°
2026-05-04 16:49 45.11118 1.49241 14152 ft 345 kts 169°
2026-05-04 16:50 45.06446 1.50728 13140 ft 342 kts 169°
2026-05-04 16:50 45.01853 1.52184 12205 ft 338 kts 168°
2026-05-04 16:51 44.97313 1.53621 11279 ft 334 kts 168°
2026-05-04 16:51 44.95050 1.54340 10846 ft 332 kts 168°
2026-05-04 16:51 44.90628 1.55741 10258 ft 318 kts 167°
2026-05-04 16:52 44.86451 1.57064 9914 ft 300 kts 167°
2026-05-04 16:52 44.84440 1.57699 9753 ft 291 kts 167°
2026-05-04 16:53 44.80606 1.58911 9354 ft 278 kts 168°
2026-05-04 16:53 44.74971 1.60687 8320 ft 276 kts 168°
2026-05-04 16:54 44.73094 1.61278 7994 ft 275 kts 168°
2026-05-04 16:55 44.65672 1.63603 6690 ft 271 kts 168°
2026-05-04 16:55 44.62030 1.64747 6069 ft 268 kts 168°
2026-05-04 16:56 44.58408 1.65878 5904 ft 267 kts 168°
2026-05-04 16:56 44.52959 1.67583 5903 ft 268 kts 168°
2026-05-04 16:57 44.51157 1.68145 5900 ft 268 kts 168°
2026-05-04 16:57 44.47493 1.69287 5906 ft 268 kts 169°
2026-05-04 16:58 44.42046 1.70981 5903 ft 266 kts 168°
2026-05-04 16:58 44.40260 1.71536 5903 ft 265 kts 168°
2026-05-04 16:59 44.36642 1.72660 5904 ft 265 kts 168°
2026-05-04 17:00 44.29397 1.73825 5898 ft 264 kts 194°
2026-05-04 17:00 44.24572 1.70158 5898 ft 265 kts 214°
2026-05-04 17:01 44.21536 1.67221 5896 ft 264 kts 214°
2026-05-04 17:01 44.18511 1.64325 5898 ft 265 kts 215°
2026-05-04 17:02 44.15495 1.61431 5897 ft 264 kts 214°
2026-05-04 17:02 44.12477 1.58555 5893 ft 264 kts 215°
2026-05-04 17:03 44.10955 1.57112 5893 ft 264 kts 215°
2026-05-04 17:03 44.09436 1.55661 5891 ft 264 kts 215°
2026-05-04 17:03 44.06408 1.52781 5889 ft 264 kts 215°
2026-05-04 17:04 44.03389 1.49907 5887 ft 263 kts 214°
2026-05-04 17:04 44.00369 1.47048 5888 ft 263 kts 214°
2026-05-04 17:05 43.97050 1.44837 5894 ft 267 kts 199°
2026-05-04 17:05 43.93413 1.43775 5897 ft 270 kts 192°
2026-05-04 17:06 43.89736 1.42913 5895 ft 267 kts 192°
2026-05-04 17:06 43.87896 1.42478 5896 ft 266 kts 192°
2026-05-04 17:07 43.84217 1.41635 5896 ft 271 kts 187°
2026-05-04 17:07 43.82949 1.41711 5891 ft 275 kts 170°
2026-05-04 17:07 43.80658 1.43287 5903 ft 278 kts 144°
2026-05-04 17:07 43.79150 1.44940 5907 ft 279 kts 143°
2026-05-04 17:08 43.77629 1.46635 5902 ft 279 kts 143°
2026-05-04 17:08 43.74589 1.49962 5513 ft 279 kts 143°
2026-05-04 17:08 43.73056 1.51618 5264 ft 278 kts 144°
2026-05-04 17:09 43.71551 1.53241 5016 ft 276 kts 144°
2026-05-04 17:09 43.70032 1.54877 4765 ft 276 kts 144°
2026-05-04 17:09 43.68518 1.56502 4516 ft 274 kts 144°
2026-05-04 17:10 43.65535 1.59699 4016 ft 272 kts 144°
2026-05-04 17:10 43.60754 1.63398 3255 ft 262 kts 184°
2026-05-04 17:11 43.58951 1.63142 3016 ft 258 kts 191°
2026-05-04 17:11 43.57216 1.62810 2917 ft 249 kts 191°
2026-05-04 17:11 43.53889 1.62217 2911 ft 238 kts 190°
2026-05-04 17:12 43.52255 1.61938 2912 ft 239 kts 190°
2026-05-04 17:12 43.48967 1.61174 2895 ft 232 kts 211°
2026-05-04 17:13 43.47290 1.55819 2916 ft 208 kts 261°
2026-05-04 17:14 43.48676 1.50881 3000 ft 194 kts 323°
2026-05-04 17:14 43.49736 1.49827 2933 ft 180 kts 322°
2026-05-04 17:14 43.51530 1.48032 2887 ft 136 kts 321°
2026-05-04 17:15 43.52274 1.47266 2818 ft 132 kts 320°
2026-05-04 17:15 43.53706 1.45766 2477 ft 128 kts 320°
2026-05-04 17:16 43.55130 1.44272 2151 ft 128 kts 320°
2026-05-04 17:16 43.57248 1.42060 1639 ft 127 kts 320°
2026-05-04 17:17 43.57953 1.41325 1468 ft 127 kts 319°
2026-05-04 17:17 43.60057 1.39121 972 ft 127 kts 321°
2026-05-04 17:18 43.60769 1.38397 813 ft 127 kts 321°
2026-05-04 17:18 43.62180 1.36918 514 ft 126 kts 320°